Regional Weather Roundup
Issued by NWS

Home | Current Version | Previous Version | Graphics & Text | Print | Product List | Glossary On
Versions: 1 2 3 4 5 6 7 8 9 10 11 12 13 14 15 16 17 18 19 20 21 22 23 24 25 26 27 28 29 30 31 32 33 34 35 36 37 38 39 40 41 42 43 44 45 46 47 48 49 50
178
ASUS45 KBOI 202110
RWRID

IDAHO REGIONAL WEATHER ROUNDUP
NATIONAL WEATHER SERVICE BOISE ID
300 PM MDT FRI APR 20 2018

NOTE: "FAIR" INDICATES FEW OR NO CLOUDS BELOW 12000 FEET
WITH NO SIGNIFICANT WEATHER AND/OR OBSTRUCTIONS TO VISIBILITY

IDZ012-014-202200-
SOUTHWEST IDAHO


CITY           SKY/WX    TMP DP  RH WIND       PRES   REMARKS
BOISE          SUNNY     66  30  26 W18G28    30.09F
CALDWELL       SUNNY     67  29  24 NW13      30.10F
MOUNTAIN HOME  SUNNY     66  28  24 NW29G37   30.07F
$$

IDZ016-017-202200-
SOUTHCENTRAL IDAHO


CITY           SKY/WX    TMP DP  RH WIND       PRES   REMARKS
BURLEY         SUNNY     62  28  27 W17G37    30.05S
JEROME         SUNNY     64  30  27 W17G26    30.08R
TWIN FALLS     SUNNY     61  28  28 W21G26    30.10R
$$

IDZ019>023-202200-
SOUTHEAST IDAHO


CITY           SKY/WX    TMP DP  RH WIND       PRES   REMARKS
IDAHO FALLS    SUNNY     67  26  21 N17G23    29.99S
POCATELLO      MOSUNNY   68  27  21 NW12      30.00S
REXBURG        SUNNY     66  24  20 N16G22    29.99R
$$

IDZ006-010-011-018-031-032-202200-
CENTRAL IDAHO MOUNTAINS


CITY           SKY/WX    TMP DP  RH WIND       PRES   REMARKS
MCCALL         SUNNY     58  25  28 VRB6      30.12F
HAILEY         SUNNY     63  32  31 S10G21    30.06R
STANLEY          N/A     54  19  25 N7        30.13S
SALMON         SUNNY     63  24  22 N7        30.08F
CHALLIS        SUNNY     65  17  15 NE9       30.07F
$$

IDZ002-004-006-007-026-202200-
NORTHERN IDAHO


CITY           SKY/WX    TMP DP  RH WIND       PRES   REMARKS
LEWISTON       SUNNY     66  35  31 VRB5      30.16F
LOWELL           N/A     69  38  32 VRB3      30.13F
COEUR D`ALENE  CLOUDY    60  36  40 SW5       30.17F
MULLAN PASS    MOSUNNY   47  23  38 VRB6      30.18F
$$




USA.gov is the U.S. government's official web portal to all federal, state and local government web resources and services.